Weather History for Shepherd Bay, NU

Change the Weather History Date:

Thursday, April 24, 2014

  Actual Average Record
Temperature  
Mean Temperature -6 °F -  
Max Temperature 2 °F - - ()
Min Temperature -15 °F - - ()
Degree Days  
Heating Degree Days 72    
Moisture  
Dew Point -    
Average Humidity    
Maximum Humidity    
Minimum Humidity    
Precipitation  
Precipitation 0.00 in - - ()
Sea Level Pressure  
Sea Level Pressure 30.33 in    
Wind  
Wind Speed 10 mph ()    
Max Wind Speed 17 mph    
Max Gust Speed -    
T = Trace of Precipitation, MM = Missing Value Source: Averaged Metar Reports

Daily Weather History Graph

Daily Weather History Graph

Search for Another Location

Airport:

Trip Planner

Search our weather history database for the weather conditions in past years. The results will help you decide how hot, cold, wet, or windy it might be!

Date:

Astronomy

Apr. 24, 2014 Rise Set
Actual Time 4:35 AM CDT 9:51 PM CDT
Civil Twilight 3:02 AM CDT 11:28 PM CDT
Nautical Twilight Sun does not rise Sun does not rise
Astronomical Twilight Sun does not rise Sun does not rise
Moon 4:24 AM CDT (4/24) 2:40 PM CDT (4/24)
Length of Visible Light 20h 26m
Length of Day
17h 16m
Waning Crescent, 24% of the Moon is Illuminated
Apr 24
Waning Crescent
Apr 29
New
May 6
First Quarter
May 14
Full
May 21
Last Quarter

Hourly Weather History & Observations

Time (CDT) Temp. Windchill Dew Point Humidity Pressure Visibility Wind Dir Wind Speed Gust Speed Precip Events Conditions
12:00 AM 1.4 °F -9.9 °F - N/A% 30.28 in - WNW 5.8 mph - N/A   Overcast
12:36 AM 1.4 °F -11.3 °F - N/A% 30.26 in - WNW 6.9 mph - N/A   Overcast
12:43 AM 1.4 °F -9.9 °F - N/A% 30.26 in - NW 5.8 mph - N/A   Overcast
12:50 AM 1.4 °F -15.3 °F - N/A% 30.26 in - WNW 11.5 mph - N/A   Overcast
1:00 AM 2 °F - - % 30.29 in - WNW 16.1 mph - -   Overcast
1:00 AM 1.4 °F -18.8 °F - N/A% 30.29 in - WNW 17.3 mph - N/A   Overcast
1:11 AM 1.4 °F -18.2 °F - N/A% 30.26 in - WNW 16.1 mph - N/A   Overcast
1:20 AM 1.4 °F -17.6 °F - N/A% 30.27 in - WNW 15.0 mph - N/A   Overcast
1:26 AM 1.4 °F -16.9 °F - N/A% 30.27 in - WNW 13.8 mph - N/A   Overcast
1:31 AM 1.4 °F -18.2 °F - N/A% 30.26 in - WNW 16.1 mph - N/A   Overcast
1:33 AM 1.4 °F -17.6 °F - N/A% 30.26 in - WNW 15.0 mph - N/A   Overcast
1:34 AM 1.4 °F -17.6 °F - N/A% 30.27 in - WNW 15.0 mph - N/A   Overcast
2:00 AM -0.4 °F -19.2 °F - N/A% 30.29 in - West 13.8 mph - N/A   Overcast
2:08 AM -0.4 °F -15.7 °F - N/A% 30.28 in - West 9.2 mph - N/A   Scattered Clouds
2:14 AM -2.2 °F -18.0 °F - N/A% 30.27 in - West 9.2 mph - N/A   Mostly Cloudy
2:16 AM -2.2 °F -16.8 °F - N/A% 30.27 in - West 8.1 mph - N/A   Mostly Cloudy
2:28 AM -4.0 °F -17.8 °F - N/A% 30.27 in - West 6.9 mph - N/A   Scattered Clouds
2:50 AM -5.8 °F -23.4 °F - N/A% 30.28 in - West 10.4 mph - N/A   Clear
3:00 AM -5.8 °F -25.2 °F - N/A% 30.29 in - West 12.7 mph - N/A   Clear
3:13 AM -7.6 °F -25.7 °F - N/A% 30.28 in - West 10.4 mph - N/A   Clear
3:21 AM -7.6 °F -26.6 °F - N/A% 30.28 in - WNW 11.5 mph - N/A   Clear
4:00 AM -9 °F - - % 30.30 in - WNW 11.5 mph - -  
4:00 AM -9.4 °F -30.6 °F - N/A% 30.30 in - WNW 13.8 mph - N/A   Clear
4:58 AM -13.0 °F -35.2 °F - N/A% 30.30 in - NW 13.8 mph - N/A   Clear
5:00 AM -13.0 °F -36.0 °F - N/A% 30.32 in - NW 15.0 mph - N/A   Clear
5:10 AM -13.0 °F -36.8 °F - N/A% 30.30 in - NW 16.1 mph - N/A   Clear
6:00 AM -14.8 °F -36.6 °F - N/A% 30.33 in - NW 12.7 mph - N/A   Clear
7:00 AM -15 °F - - % 30.35 in - NW 11.5 mph - -  
7:00 AM -14.8 °F -36.6 °F - N/A% 30.35 in - NW 12.7 mph - N/A   Clear
8:00 AM -14.8 °F -34.6 °F - N/A% 30.36 in - NW 10.4 mph - N/A   Clear
9:00 AM -13.0 °F -30.0 °F - N/A% 30.37 in - WNW 8.1 mph - N/A   Clear
10:00 AM -10 °F - - % 30.38 in - WNW 5.8 mph - -  
10:00 AM -9.4 °F -22.7 °F - N/A% 30.38 in - WNW 5.8 mph - N/A   Clear
10:21 AM -9.4 °F -24.3 °F - N/A% 30.35 in - West 6.9 mph - N/A   Clear
10:36 AM -9.4 °F -26.8 °F - N/A% 30.35 in - WNW 9.2 mph - N/A   Clear
11:00 AM -7.6 °F -27.5 °F - N/A% 30.38 in - NW 12.7 mph - N/A   Clear
12:00 PM -4.0 °F -22.1 °F - N/A% 30.38 in - NNW 11.5 mph - N/A   Clear
1:00 PM -2 °F - - % 30.38 in - NW 13.8 mph - -  
1:00 PM -2.2 °F -22.2 °F - N/A% 30.38 in - NW 15.0 mph - N/A   Clear
2:00 PM -0.4 °F -20.5 °F - N/A% 30.38 in - NW 16.1 mph - N/A   Clear
3:00 PM -0.4 °F -19.2 °F - N/A% 30.39 in - NW 13.8 mph - N/A   Clear
4:00 PM -1 °F - - % 30.39 in - NW 16.1 mph - -  
4:00 PM -0.4 °F -19.2 °F - N/A% 30.39 in - NW 13.8 mph - N/A   Clear
5:00 PM -2.2 °F -18.9 °F - N/A% 30.40 in - WNW 10.4 mph - N/A   Clear
5:51 PM -2.2 °F -19.9 °F - N/A% 30.37 in - WNW 11.5 mph - N/A   Clear
6:00 PM -2.2 °F -21.5 °F - N/A% 30.40 in - WNW 13.8 mph - N/A   Clear
6:14 PM -4.0 °F -25.8 °F - N/A% 30.36 in - WNW 17.3 mph - N/A   Clear
7:00 PM -3 °F - - % 30.40 in - West 4.6 mph - -  
7:00 PM -4.0 °F -14.6 °F - N/A% 30.40 in - West 4.6 mph - N/A   Clear
8:00 PM -5.8 °F -18.4 °F - N/A% 30.40 in - WSW 5.8 mph - N/A   Clear
9:00 PM -9.4 °F -27.9 °F - N/A% 30.39 in - West 10.4 mph - N/A   Clear
10:00 PM -11 °F - - % 30.38 in - West 10.4 mph - -  
10:00 PM -11.2 °F -30.1 °F - N/A% 30.38 in - West 10.4 mph - N/A   Clear
11:00 PM -13.0 °F -31.3 °F - N/A% 30.38 in - West 9.2 mph - N/A   Clear
11:48 PM -13.0 °F -30.0 °F - N/A% 30.36 in - West 8.1 mph - N/A   Clear